sat.trackr.live / text

‹ back to catalog

STARLINK-37025

NORAD 68223 · 2026-053S

PAYLOAD ACTIVE UNKNOWN

§ Identity

Operator
Country
US
Launch date
2026-03-17
Launch site
AFWTR
Launch vehicle
Mass (kg)
RCS (m²)

Purposes: comms

External: N2YO · Heavens-Above · Gunter

§ Orbital elements

Epoch: 2026-05-25T02:51:22.877856Z

Period
93.91 min
Inclination
97.2889°
Eccentricity
0.0001389
Mean motion
15.33453382 rev/d
Perigee alt
464.6 km
Apogee alt
466.5 km
Semi-major
6,843.7 km
B*
4.3667e-4
RAAN
20.6079°
Arg perigee
87.0375°
Mean anomaly
273.1027°
Rev number
1,193

§ Raw data

STARLINK-370251 68223U 26053S   26145.11901479  .00014052  00000+0  43667-3 0  99972 68223  97.2889  20.6079 0001389  87.0375 273.1027 15.33453382 11934

JSON: /api/v1/satellites/68223 · /tle

For live sub-satellite position, see the globe view (requires WebGL).

§ Visibility from observer

Set your observer location to see the next 7 days of passes ≥ 10°. The values pass through the URL so the page stays shareable.

No JS? Fill the form by hand. The geolocation button needs JavaScript.